Location: Gleizolles
(44.4833°N, 6.7667°E)
Time: 05:45:18
(UTC+00:00)

Transit 4A - Pass Details

Date: 03 July 2024
Orbit: 870 x 973 km, 66.8° (Epoch: 14 July)

Event Time Altitude Azimuth Distance (km) Brightness Sun altitude
Rises 01:33:47 0° 332° (NNW) 3,487 11.4 -17.5°
Reaches altitude 10° 01:37:56 10° 0° (N) 2,563 11.1 -17.2°
Maximum altitude 01:40:31 13° 27° (NNE) 2,372 11.3 -16.9°
Drops below altitude 10° 01:43:07 10° 53° (NE) 2,587 11.3 -16.7°
Sets 01:47:20 0° 81° (E) 3,551 11.6 -16.3°
